Location: Skalnate Pleso
(49.1889°N, 20.2450°E)
Time: 15:15:14
(UTC+01:00)

ISS - Visible Passes

Search period start: 20 January 2020 00:00
Search period end: 30 January 2020 00:00
Orbit: 415 x 421 km, 51.6° (Epoch: 20 January)

Date Brightness Start Highest point End Pass type
(mag) Time Alt. Az. Time Alt. Az. Time Alt. Az.
20 Jan -1.3 18:25:57 10° S 18:26:49 14° S 18:26:49 14° S visible
21 Jan -1.5 17:39:04 10° SSE 17:40:40 13° SE 17:41:07 13° SE visible
21 Jan -0.7 19:13:35 10° SW 19:14:04 13° SW 19:14:04 13° SW visible
22 Jan -2.7 18:25:47 10° SW 18:28:16 35° S 18:28:16 35° S visible
23 Jan -2.5 17:38:09 10° SSW 17:41:04 28° SE 17:42:25 21° ESE visible
23 Jan -1.0 19:14:16 10° WSW 19:15:21 19° WSW 19:15:21 19° WSW visible
24 Jan -3.7 18:26:15 10° WSW 18:29:25 75° SSW 18:29:25 75° SSW visible
25 Jan -3.5 17:38:18 10° SW 17:41:37 58° SSE 17:43:26 24° E visible
25 Jan -1.1 19:15:06 10° W 19:16:22 21° W 19:16:22 21° W visible
26 Jan -3.6 18:26:59 10° W 18:30:19 66° NNW 18:30:19 66° NNW visible
27 Jan -3.8 17:38:53 10° WSW 17:42:15 80° NNW 17:44:16 23° ENE visible
27 Jan -1.1 19:15:55 10° WNW 19:17:11 21° WNW 19:17:11 21° WNW visible
28 Jan -3.4 18:27:48 10° W 18:31:06 54° N 18:31:06 54° N visible
29 Jan -3.5 17:39:38 10° W 17:42:58 58° N 17:45:00 21° ENE visible
29 Jan -1.2 19:16:37 10° WNW 19:17:55 21° WNW 19:17:55 21° WNW visible
